Northport, AL

10:57 PM CST on February 06, 2016 (GMT -0600)
Tuscaloosa Municipal

Weather History for KTCL - March, 2014

Change the Weather History Date:

Saturday, March 1, 2014

  Actual Average Record
Temperature  
Mean Temperature 61 °F 53 °F  
Max Temperature 73 °F 64 °F 83 °F (1997)
Min Temperature 48 °F 41 °F 20 °F (1980)
Degree Days  
Heating Degree Days 4 13  
Month to date heating degree days 4 13  
Since 1 July heating degree days 2321 2103  
Growing Degree Days 11 (Base 50)    
Moisture  
Dew Point 46 °F    
Average Humidity 63    
Maximum Humidity 77    
Minimum Humidity 49    
Precipitation  
Precipitation T in 0.17 in 1.56 in (1991)
Month to date precipitation T 0.17  
Year to date precipitation 7.72 10.84  
Sea Level Pressure  
Sea Level Pressure 30.14 in    
Wind  
Wind Speed 4 mph (SE)    
Max Wind Speed 10 mph    
Max Gust Speed 14 mph    
Visibility 10 miles    
Events      
T = Trace of Precipitation, MM = Missing Value Source: NWS Daily Summary

Daily Weather History Graph

Daily Weather History Graph

Search for Another Location

Airport or City:

Trip Planner

Search our weather history database for the weather conditions in past years. The results will help you decide how hot, cold, wet, or windy it might be!

Date:

Astronomy

Mar. 01, 2014 Rise Set
Actual Time 6:18 AM CST 5:47 PM CST
Civil Twilight 5:53 AM CST 6:12 PM CST
Nautical Twilight 5:24 AM CST 6:41 PM CST
Astronomical Twilight 4:56 AM CST 7:09 PM CST
Moon 6:14 AM CST (3/1) 6:29 PM CST (3/1)
Length of Visible Light 12h 18m
Length of Day
11h 28m
New Moon, 0% of the Moon is Illuminated
Mar 1
New Moon
Mar 8
First Quarter
Mar 16
Full
Mar 23
Last Quarter
Mar 30
New

Hourly Weather History & Observations

Time (CST) Temp. Dew Point Humidity Pressure Visibility Wind Dir Wind Speed Gust Speed Precip Events Conditions
12:53 AM 51.1 °F 37.0 °F 59% 30.11 in 10.0 mi ESE 4.6 mph - N/A   Overcast
1:53 AM 51.1 °F 37.0 °F 59% 30.11 in 10.0 mi Calm Calm - 0.00 in   Overcast
2:53 AM 50.0 °F 39.0 °F 66% 30.11 in 10.0 mi Calm Calm - 0.00 in   Overcast
3:53 AM 50.0 °F 39.9 °F 68% 30.12 in 10.0 mi ESE 3.5 mph - N/A   Overcast
4:53 AM 51.1 °F 39.9 °F 66% 30.14 in 10.0 mi Calm Calm - N/A   Overcast
5:53 AM 50.0 °F 39.0 °F 66% 30.16 in 10.0 mi ESE 4.6 mph - N/A   Scattered Clouds
6:53 AM 50.0 °F 39.0 °F 66% 30.18 in 9.0 mi ESE 3.5 mph - N/A   Overcast
7:53 AM 52.0 °F 39.9 °F 63% 30.20 in 10.0 mi Calm Calm - N/A   Mostly Cloudy
8:53 AM 55.0 °F 41.0 °F 59% 30.21 in 10.0 mi SE 9.2 mph - N/A   Mostly Cloudy
9:53 AM 60.1 °F 45.0 °F 57% 30.21 in 10.0 mi Variable 4.6 mph - N/A   Partly Cloudy
10:53 AM 64.0 °F 48.0 °F 56% 30.20 in 10.0 mi SW 5.8 mph - N/A   Partly Cloudy
11:53 AM 66.0 °F 48.9 °F 54% 30.18 in 10.0 mi Calm Calm - N/A   Overcast
12:53 PM 68.0 °F 50.0 °F 52% 30.13 in 10.0 mi Calm Calm - N/A   Mostly Cloudy
1:53 PM 66.0 °F 51.1 °F 59% 30.12 in 10.0 mi South 8.1 mph - N/A   Scattered Clouds
2:53 PM 72.0 °F 51.1 °F 48% 30.11 in 10.0 mi SSW 9.2 mph - N/A   Mostly Cloudy
3:53 PM 72.0 °F 51.1 °F 48% 30.11 in 10.0 mi South 5.8 mph - N/A   Mostly Cloudy
4:53 PM 71.1 °F 52.0 °F 51% 30.11 in 10.0 mi South 5.8 mph - N/A   Overcast
5:53 PM 69.1 °F 52.0 °F 54% 30.11 in 10.0 mi SE 5.8 mph - N/A   Mostly Cloudy
6:53 PM 66.9 °F 53.1 °F 61% 30.12 in 10.0 mi SE 3.5 mph - N/A   Clear
7:53 PM 64.0 °F 52.0 °F 65% 30.14 in 10.0 mi Calm Calm - N/A   Scattered Clouds
8:53 PM 62.1 °F 51.1 °F 67% 30.15 in 10.0 mi Calm Calm - N/A   Partly Cloudy
9:53 PM 63.0 °F 51.1 °F 65% 30.15 in 10.0 mi SE 6.9 mph - N/A   Partly Cloudy
10:53 PM 62.1 °F 51.1 °F 67% 30.14 in 10.0 mi SE 4.6 mph - N/A   Clear
11:53 PM 60.1 °F 51.1 °F 72% 30.14 in 10.0 mi SE 3.5 mph - N/A   Clear